[[{"header":{"parameterUnit":"m.s-1","parameterCategory":1,"la1":30.2991,"la2":30.254,"lo1":-89.0895,"lo2":-89.0444,"dy":0.0017,"dx":0.0017,"nx":28,"ny":28,"refTime":"2024-08-29T03:00:00:Z","depth":0,"parameterNumber":2,"parameterNumberName":"U-component_of_WINDS"},"data":[0,0,0,0,0,0,0,0,0,0,0,0,0,0,0,0,0,0,0,0,0,0,0,0,0,0,0,0,0,0,0,0,0,0,0,0,0,0,0,0,0,0,0,0,0,0,0,0,0,0,0,0,0,0,0,0,0,0,-2.0869,-2.0871,0,-2.0976,-2.0977,-2.0978,-2.1041,-2.1041,-2.1041,-2.1041,-2.1149,-2.1151,-2.1154,0,0,0,0,0,0,0,0,0,0,0,0,0,-2.0719,-2.0721,-2.0869,-2.0871,-2.0872,-2.0976,-2.0977,-2.0979,-2.1041,-2.1041,-2.1041,-2.1041,-2.1148,-2.1151,-2.1154,0,0,0,0,0,0,0,0,0,0,0,0,0,-2.0801,-2.0722,-2.0869,-2.0915,-2.0921,-2.0975,-2.0977,-2.0979,-2.104,-2.1041,-2.1041,-2.1042,-2.1147,-2.115,-2.1154,-2.1171,0,0,-2.1166,-2.1168,0,0,0,0,0,0,0,0,-2.0796,-2.0806,-2.0907,-2.0912,-2.0918,-2.0995,-2.0964,-2.1043,-2.104,-2.0995,-2.1041,-2.1042,-2.1097,-2.1105,-2.1124,-2.1176,-2.118,-2.1167,-2.1169,-2.1171,-2.1172,0,0,0,0,0,0,0,-2.079,-2.0802,-2.0911,-2.0909,-2.0915,-2.0931,-2.0943,-2.0979,-2.1042,-2.0999,-2.1004,-2.1016,-2.11,-2.112,-2.1127,-2.1182,-2.1166,-2.117,-2.1172,-2.1174,-2.1254,-2.1254,0,0,0,0,0,0,-2.0777,-2.0797,-2.0908,-2.0915,-2.0857,-2.0933,-2.0947,-2.097,-2.1042,-2.1054,-2.1015,-2.1018,-2.1113,-2.1123,-2.1131,-2.1156,-2.1171,-2.1174,-2.1177,-2.1254,-2.1254,-2.1254,0,0,0,0,0,0,-2.0774,-2.0787,-2.0904,-2.0857,-2.0873,-2.0935,-2.0961,-2.0972,-2.0992,-2.1055,-2.1066,-2.1024,-2.1114,-2.1126,-2.1161,-2.1161,-2.1176,-2.118,-2.1254,-2.1254,-2.1254,-2.1205,0,0,0,0,0,0,-2.0769,-2.0785,-2.0792,-2.0857,-2.0875,-2.0931,-2.0961,-2.0974,-2.0999,-2.1004,-2.1066,-2.1076,-2.1115,-2.1155,-2.1165,-2.1166,-2.1183,-2.1255,-2.1254,-2.1254,-2.1207,-2.1203,-2.12,0,0,0,0,0,-2.0764,-2.0773,-2.0792,-2.0805,-2.0885,-2.0931,-2.0942,-2.0987,-2.0999,-2.1006,-2.1047,-2.1075,-2.1159,-2.1158,-2.117,-2.1172,-2.1255,-2.1254,-2.1254,-2.1208,-2.1204,-2.12,0,0,0,0,0,0,-2.0705,-2.0782,-2.0804,-2.0835,-2.0876,-2.0942,-2.0952,-2.098,-2.1019,-2.1021,-2.1075,-2.1089,-2.1119,-2.1149,-2.1146,-2.1193,-2.121,-2.1212,-2.1171,-2.1168,-2.1164,-2.1156,-2.1186,0,0,0,0,0,-2.0696,-2.0727,-2.0793,-2.0814,-2.0834,-2.0889,-2.0911,-2.0942,-2.0987,-2.1005,-2.1048,-2.109,-2.1126,-2.1149,-2.1185,-2.1212,-2.1227,-2.122,-2.1216,-2.1213,-2.1213,-2.1231,-2.1229,-2.1252,-2.1252,-2.1252,0,0,-2.0677,-2.0723,-2.0739,-2.0803,-2.0839,-2.087,-2.0903,-2.0935,-2.0959,-2.1009,-2.1045,-2.1078,-2.1129,-2.116,-2.1176,-2.1187,-2.1211,-2.1212,-2.1209,-2.1212,-2.123,-2.1228,-2.1226,-2.1252,-2.1252,-2.1252,0,0,-2.0658,-2.0696,-2.0718,-2.0754,-2.0808,-2.0846,-2.0851,-2.0913,-2.0937,-2.0975,-2.1014,-2.1043,-2.1104,-2.1139,-2.1165,-2.1162,-2.1189,-2.1172,-2.1153,-2.117,-2.1168,-2.1166,-2.1166,-2.1165,-2.1173,-2.1173,-2.1173,0,-2.0627,-2.0676,-2.0726,-2.0756,-2.0783,-2.0832,-2.0855,-2.0887,-2.095,-2.0967,-2.0978,-2.1057,-2.1095,-2.1135,-2.1135,-2.1154,-2.1162,-2.1165,-2.1164,-2.1163,-2.1163,-2.1163,-2.1162,-2.117,-2.1171,-2.1171,-2.1171,0,-2.0636,-2.067,-2.0681,-2.0742,-2.0771,-2.0797,-2.085,-2.0873,-2.0903,-2.0939,-2.0977,-2.1024,-2.1072,-2.1084,-2.1112,-2.1129,-2.1134,-2.1154,-2.1172,-2.1157,-2.1158,-2.1159,-2.1167,-2.1168,-2.1168,-2.1169,0,0,-2.0582,-2.0672,-2.0675,-2.0704,-2.0768,-2.0795,-2.0824,-2.0872,-2.0891,-2.0933,-2.0959,-2.101,-2.103,-2.1059,-2.1092,-2.1107,-2.1102,-2.1125,-2.1127,-2.1119,-2.1125,-2.1109,-2.1109,-2.1121,-2.1122,-2.1122,-2.1121,0,-2.0572,-2.0627,-2.0673,-2.071,-2.0743,-2.0791,-2.0816,-2.0858,-2.0893,-2.0926,-2.0965,-2.1001,-2.1023,-2.1041,-2.1058,-2.1099,-2.1104,-2.11,-2.1146,-2.1147,-2.1131,-2.1109,-2.1092,-2.1089,-2.1121,-2.1122,-2.1122,0,-2.0568,-2.061,-2.0651,-2.0714,-2.0729,-2.0751,-2.0799,-2.083,-2.0879,-2.0904,-2.0938,-2.0973,-2.1006,-2.1022,-2.1069,-2.1065,-2.1087,-2.111,-2.1111,-2.1117,-2.1133,-2.1114,-2.1089,-2.1088,-2.1123,-2.1123,-2.1122,0,-2.0525,-2.0591,-2.0625,-2.0648,-2.0722,-2.0737,-2.0768,-2.0818,-2.0845,-2.0887,-2.0905,-2.095,-2.0975,-2.1009,-2.1056,-2.1063,-2.1098,-2.1118,-2.112,-2.1119,-2.1124,-2.1123,-2.1102,-2.1138,-2.1138,-2.1138,-2.1138,0,-2.0509,-2.0532,-2.0607,-2.0627,-2.0655,-2.0708,-2.0734,-2.077,-2.0814,-2.0843,-2.0887,-2.0913,-2.0973,-2.1006,-2.1043,-2.1077,-2.1087,-2.1109,-2.1118,-2.1104,-2.1102,-2.1119,-2.112,-2.1138,-2.1138,-2.1138,-2.1138,0,-2.0465,-2.0515,-2.0555,-2.0623,-2.0641,-2.0658,-2.0716,-2.0738,-2.0777,-2.0812,-2.0824,-2.0884,-2.0926,-2.0976,-2.1033,-2.1058,-2.1089,-2.1103,-2.1072,-2.1077,-2.1077,-2.1076,-2.1066,-2.1068,-2.1102,-2.1102,-2.1101,0,-2.0451,-2.0471,-2.0541,-2.0564,-2.0594,-2.063,-2.0658,-2.0712,-2.0738,-2.0798,-2.0813,-2.0858,-2.0897,-2.0961,-2.101,-2.1055,-2.107,-2.1064,-2.1077,-2.1064,-2.1071,-2.1069,-2.1071,-2.106,-2.1059,-2.1059,-2.1058,0,-2.0422,-2.0447,-2.0485,-2.0533,-2.0565,-2.0605,-2.0647,-2.0663,-2.0725,-2.0753,-2.0797,-2.0827,-2.0887,-2.0932,-2.0983,-2.1016,-2.1047,-2.1054,-2.1057,-2.1043,-2.1024,-2.1035,-2.1062,-2.1054,-2.1054,-2.1054,-2.1055,-2.1055,-2.0393,-2.0413,-2.0466,-2.0508,-2.0545,-2.0584,-2.0608,-2.0651,-2.0688,-2.0741,-2.0771,-2.0814,-2.0865,-2.0938,-2.0969,-2.1004,-2.1015,-2.1019,-2.102,-2.102,-2.1017,-2.1019,-2.1014,-2.1014,-2.1014,-2.1014,-2.1014,0,-2.0366,-2.0403,-2.0441,-2.0499,-2.0532,-2.0561,-2.0609,-2.0635,-2.0672,-2.0717,-2.0756,-2.0806,-2.085,-2.0904,-2.0951,-2.0969,-2.0985,-2.098,-2.0979,-2.0986,-2.1004,-2.0996,-2.0966,-2.0966,-2.0966,-2.0966,-2.0966,-2.0966,-2.0356,-2.0391,-2.0423,-2.0478,-2.0515,-2.0558,-2.0583,-2.0619,-2.0656,-2.0711,-2.0748,-2.0783,-2.0832,-2.0884,-2.0926,-2.0941,-2.0956,-2.0946,-2.0965,-2.098,-2.0985,-2.0989,-2.0982,-2.0949,-2.0949,-2.0945,-2.0945,-2.0945]},{"header":{"parameterUnit":"m.s-1","parameterCategory":1,"la1":30.2991,"la2":30.254,"lo1":-89.0895,"lo2":-89.0444,"dy":0.0017,"dx":0.0017,"nx":28,"ny":28,"refTime":"2024-08-29T03:00:00:Z","depth":0,"parameterNumber":3,"parameterNumberName":"V-component_of_WINDS"},"data":[0,0,0,0,0,0,0,0,0,0,0,0,0,0,0,0,0,0,0,0,0,0,0,0,0,0,0,0,0,0,0,0,0,0,0,0,0,0,0,0,0,0,0,0,0,0,0,0,0,0,0,0,0,0,0,0,0,0,3.8688,3.8689,0,3.8811,3.8813,3.8814,3.8858,3.8857,3.8857,3.8856,3.8977,3.898,3.8984,0,0,0,0,0,0,0,0,0,0,0,0,0,3.8484,3.8488,3.8688,3.8689,3.8691,3.8811,3.8813,3.8815,3.8858,3.8857,3.8857,3.8856,3.8976,3.898,3.8984,0,0,0,0,0,0,0,0,0,0,0,0,0,3.8586,3.8489,3.8688,3.8727,3.8732,3.8811,3.8813,3.8815,3.8858,3.8857,3.8856,3.8856,3.8974,3.8979,3.8985,3.9032,0,0,3.9001,3.9004,0,0,0,0,0,0,0,0,3.858,3.8594,3.872,3.8725,3.873,3.8819,3.8785,3.8887,3.8858,3.881,3.8856,3.8856,3.8924,3.8934,3.8958,3.9037,3.9042,3.9002,3.9005,3.9008,3.9009,0,0,0,0,0,0,0,3.8573,3.8589,3.8737,3.8721,3.8728,3.8737,3.8751,3.8805,3.8869,3.8814,3.8817,3.8832,3.8927,3.8953,3.8961,3.9044,3.9002,3.9007,3.901,3.9012,3.9168,3.9169,0,0,0,0,0,0,3.856,3.8582,3.8733,3.874,3.8652,3.8741,3.8757,3.8791,3.8869,3.888,3.8832,3.8833,3.8944,3.8955,3.8966,3.9027,3.9007,3.9013,3.9016,3.9167,3.9168,3.9169,0,0,0,0,0,0,3.8556,3.8573,3.8728,3.8662,3.8683,3.8745,3.8783,3.8793,3.882,3.8883,3.8894,3.8847,3.8944,3.8958,3.9015,3.9031,3.9015,3.902,3.9166,3.9167,3.9169,3.9148,0,0,0,0,0,0,3.855,3.8572,3.8591,3.8663,3.8686,3.8777,3.8784,3.8796,3.883,3.8832,3.89,3.891,3.8944,3.9007,3.9021,3.9038,3.9024,3.9165,3.9167,3.9168,3.9147,3.9148,3.9149,0,0,0,0,0,3.8542,3.8579,3.8592,3.861,3.8712,3.8778,3.8791,3.8832,3.8831,3.885,3.8891,3.8908,3.9027,3.9013,3.9028,3.9048,3.9164,3.9166,3.9168,3.9147,3.9148,3.9149,0,0,0,0,0,0,3.8506,3.8589,3.8604,3.8666,3.8715,3.8785,3.8811,3.8831,3.888,3.888,3.8926,3.8941,3.8995,3.9027,3.9009,3.9097,3.9096,3.9102,3.9075,3.9076,3.9077,3.9068,3.9029,0,0,0,0,0,3.8505,3.8553,3.8622,3.867,3.8694,3.8748,3.8778,3.8805,3.8857,3.8877,3.8922,3.8969,3.9018,3.9049,3.9096,3.9151,3.9167,3.9172,3.9173,3.9174,3.9178,3.9209,3.9213,3.9176,3.9176,3.9176,0,0,3.8504,3.8555,3.8582,3.8664,3.8705,3.8752,3.8765,3.8814,3.8849,3.8884,3.8942,3.8976,3.9032,3.9089,3.9116,3.9117,3.9191,3.9176,3.9176,3.918,3.9212,3.9215,3.9218,3.9177,3.9177,3.9177,0,0,3.8526,3.8569,3.8614,3.8656,3.8718,3.8754,3.8765,3.8833,3.8857,3.8916,3.8944,3.8984,3.9067,3.9106,3.9137,3.9173,3.9191,3.9187,3.9192,3.9222,3.9225,3.9228,3.9241,3.9246,3.9191,3.9191,3.9191,0,3.8516,3.859,3.8634,3.8683,3.8717,3.8753,3.8797,3.8834,3.8908,3.8931,3.8932,3.9036,3.9076,3.9143,3.9152,3.9175,3.9188,3.918,3.9221,3.9225,3.9228,3.9241,3.9246,3.919,3.919,3.919,3.9191,0,3.8575,3.8626,3.8654,3.8727,3.8765,3.8811,3.886,3.8893,3.8916,3.8951,3.901,3.906,3.9119,3.9136,3.9159,3.9206,3.9205,3.9213,3.9213,3.923,3.9243,3.9249,3.9189,3.9189,3.919,3.919,0,0,3.8578,3.8676,3.8685,3.8719,3.8791,3.883,3.8877,3.8937,3.8964,3.9013,3.9053,3.9122,3.913,3.9165,3.9192,3.9218,3.9245,3.9223,3.9225,3.9226,3.93,3.9294,3.93,3.9257,3.9258,3.9259,3.9295,0,3.861,3.8699,3.8739,3.8809,3.8856,3.889,3.8931,3.8978,3.9012,3.9056,3.9092,3.9141,3.9147,3.9169,3.9196,3.9236,3.926,3.9233,3.9293,3.9295,3.928,3.9307,3.9301,3.9334,3.9301,3.9302,3.9302,0,3.866,3.8712,3.8787,3.8854,3.8875,3.8911,3.8969,3.9011,3.9064,3.9087,3.9126,3.9152,3.9201,3.9197,3.9265,3.9246,3.9273,3.9295,3.9298,3.9305,3.93,3.9316,3.9345,3.935,3.9311,3.931,3.931,0,3.8656,3.8744,3.8801,3.8828,3.8907,3.8932,3.8966,3.9019,3.9052,3.9102,3.9124,3.9177,3.9207,3.9247,3.9286,3.928,3.935,3.935,3.937,3.9369,3.9384,3.9383,3.9418,3.9399,3.9399,3.9399,3.9399,0,3.8688,3.8733,3.88,3.8835,3.8885,3.8931,3.8979,3.9014,3.9062,3.9103,3.9134,3.9171,3.9221,3.9264,3.9294,3.9346,3.9358,3.9377,3.9385,3.9375,3.9373,3.9394,3.9393,3.94,3.94,3.94,3.94,0,3.8693,3.874,3.8804,3.8874,3.8892,3.8926,3.8985,3.9019,3.9054,3.9106,3.912,3.9175,3.9228,3.9271,3.9339,3.9359,3.9413,3.9422,3.9396,3.94,3.9418,3.9416,3.947,3.9479,3.9452,3.9453,3.9453,0,3.8711,3.8746,3.882,3.8851,3.8885,3.8934,3.8969,3.9014,3.9048,3.9112,3.9138,3.9193,3.924,3.9322,3.9367,3.9418,3.9429,3.9444,3.9437,3.9426,3.943,3.9428,3.9432,3.9445,3.9445,3.9445,3.9445,0,3.8738,3.876,3.881,3.8868,3.8909,3.8956,3.9004,3.9027,3.908,3.9117,3.9172,3.9208,3.9279,3.9333,3.939,3.9422,3.9442,3.9447,3.9454,3.9445,3.9429,3.9439,3.9399,3.9445,3.9445,3.9445,3.9445,3.9445,3.8751,3.8784,3.8842,3.8896,3.8938,3.8982,3.9018,3.9058,3.9105,3.9168,3.9191,3.9247,3.9299,3.9378,3.9411,3.9454,3.9456,3.9467,3.947,3.9472,3.9471,3.9421,3.9464,3.9464,3.9464,3.9464,3.9464,0,3.8781,3.882,3.8869,3.8937,3.8979,3.8996,3.9049,3.9083,3.9133,3.9181,3.9227,3.929,3.9342,3.9391,3.9446,3.9471,3.9482,3.9484,3.9483,3.949,3.9466,3.9454,3.9474,3.9474,3.9474,3.9474,3.9474,3.9474,3.8802,3.8859,3.8888,3.8965,3.9003,3.9061,3.909,3.913,3.9169,3.9239,3.9283,3.9315,3.9363,3.9422,3.947,3.9483,3.9501,3.9501,3.9516,3.9493,3.9492,3.949,3.948,3.9505,3.9505,3.9537,3.9538,3.9538]}]]